• In India
  • List of Countries
  • For 7 days
  • Water Temperature
  • Satellite Maps
  • Weather Map
  • Weather Widgets
  • user-avatar
    Login

    Hourly Weather Zaliznychne

    Today, 18 September, Tuesday

    Time Temperature Precipitation Wind Pressure Humidity
    00:00 +12°C° 0 mm 2 mps 753 mmHg 67%
    01:00 +12°C° 0 mm 2 mps 753 mmHg 69%
    02:00 +12°C° 0 mm 2 mps 753 mmHg 72%
    03:00 +10°C° 0 mm 2 mps 753 mmHg 73%
    04:00 +10°C° 0 mm 2 mps 753 mmHg 75%
    05:00 +10°C° 0 mm 2 mps 753 mmHg 76%
    06:00 +13°C° 0 mm 2 mps 753 mmHg 70%
    07:00 +14°C° 0 mm 3 mps 753 mmHg 64%
    08:00 +17°C° 0 mm 3 mps 753 mmHg 56%
    09:00 +18°C° 0 mm 4 mps 753 mmHg 51%
    10:00 +20°C° 0 mm 4 mps 753 mmHg 46%
    11:00 +21°C° 0 mm 5 mps 753 mmHg 41%
    12:00 +21°C° 0 mm 5 mps 753 mmHg 40%
    13:00 +22°C° 0 mm 5 mps 752 mmHg 39%
    14:00 +22°C° 0 mm 6 mps 752 mmHg 38%
    15:00 +22°C° 0 mm 5 mps 752 mmHg 42%
    16:00 +21°C° 0 mm 4 mps 752 mmHg 45%
    17:00 +20°C° 0 mm 4 mps 751 mmHg 48%
    18:00 +19°C° 0 mm 3 mps 751 mmHg 53%
    19:00 +18°C° 0 mm 3 mps 752 mmHg 57%
    20:00 +17°C° 0 mm 3 mps 752 mmHg 61%
    21:00 +17°C° 0 mm 3 mps 752 mmHg 64%
    22:00 +16°C° 0 mm 3 mps 752 mmHg 67%
    23:00 +16°C° 0 mm 3 mps 752 mmHg 70%

    Tomorrow, 19 September, Wednesday

    Time Temperature Precipitation Wind Pressure Humidity
    00:00 +14°C° 0 mm 3 mps 752 mmHg 73%
    01:00 +14°C° 0 mm 3 mps 752 mmHg 76%
    02:00 +13°C° 0 mm 3 mps 753 mmHg 79%
    03:00 +13°C° 0 mm 3 mps 753 mmHg 82%
    04:00 +14°C° 0 mm 2 mps 753 mmHg 84%
    05:00 +13°C° 0 mm 2 mps 753 mmHg 87%
    06:00 +15°C° 0 mm 2 mps 753 mmHg 79%
    07:00 +17°C° 0 mm 2 mps 753 mmHg 72%
    08:00 +18°C° 0 mm 3 mps 753 mmHg 65%
    09:00 +20°C° 0 mm 3 mps 753 mmHg 59%
    10:00 +22°C° 0 mm 4 mps 753 mmHg 52%
    11:00 +23°C° 0 mm 4 mps 753 mmHg 46%
    12:00 +25°C° 0 mm 4 mps 753 mmHg 44%
    13:00 +26°C° 0 mm 4 mps 753 mmHg 42%
    14:00 +26°C° 0 mm 4 mps 753 mmHg 40%
    15:00 +25°C° 0 mm 4 mps 753 mmHg 43%
    16:00 +24°C° 0 mm 3 mps 752 mmHg 46%
    17:00 +24°C° 0 mm 2 mps 752 mmHg 49%
    18:00 +21°C° 0 mm 2 mps 753 mmHg 53%
    19:00 +20°C° 0 mm 2 mps 753 mmHg 56%
    20:00 +19°C° 0 mm 2 mps 753 mmHg 59%
    21:00 +18°C° 0 mm 2 mps 753 mmHg 61%
    22:00 +18°C° 0 mm 2 mps 753 mmHg 63%
    23:00 +17°C° 0 mm 2 mps 753 mmHg 64%

    Day after tomorrow, 20 September, Thursday

    Time Temperature Precipitation Wind Pressure Humidity
    00:00 +17°C° 0 mm 2 mps 753 mmHg 66%
    01:00 +16°C° 0 mm 2 mps 753 mmHg 68%
    02:00 +16°C° 0 mm 2 mps 753 mmHg 70%
    03:00 +16°C° 0 mm 2 mps 753 mmHg 72%
    04:00 +15°C° 0 mm 2 mps 753 mmHg 74%
    05:00 +15°C° 0 mm 2 mps 753 mmHg 76%
    06:00 +17°C° 0 mm 2 mps 753 mmHg 71%
    07:00 +19°C° 0 mm 2 mps 753 mmHg 65%
    08:00 +20°C° 0 mm 3 mps 753 mmHg 59%
    09:00 +22°C° 0 mm 3 mps 753 mmHg 54%
    10:00 +25°C° 0 mm 3 mps 753 mmHg 48%
    11:00 +27°C° 0 mm 4 mps 753 mmHg 43%
    12:00 +27°C° 0 mm 4 mps 752 mmHg 41%
    13:00 +28°C° 0 mm 4 mps 752 mmHg 38%
    14:00 +28°C° 0 mm 4 mps 752 mmHg 36%
    15:00 +27°C° 0 mm 3 mps 752 mmHg 39%
    16:00 +26°C° 0 mm 3 mps 751 mmHg 43%
    17:00 +25°C° 0 mm 2 mps 751 mmHg 46%
    18:00 +24°C° 0 mm 2 mps 751 mmHg 51%
    19:00 +21°C° 0 mm 2 mps 751 mmHg 55%
    20:00 +20°C° 0 mm 2 mps 752 mmHg 59%
    21:00 +20°C° 0 mm 2 mps 752 mmHg 62%
    22:00 +19°C° 0 mm 2 mps 752 mmHg 66%
    23:00 +20°C° 0 mm 1 mps 752 mmHg 69%

    21 September, Friday

    Time Temperature Precipitation Wind Pressure Humidity
    00:00 +19°C° 0 mm 1 mps 752 mmHg 72%
    01:00 +19°C° 0 mm 1 mps 752 mmHg 75%
    02:00 +18°C° 0 mm 1 mps 752 mmHg 78%
    03:00 +18°C° 0 mm 1 mps 752 mmHg 81%
    04:00 +18°C° 0 mm 1 mps 752 mmHg 84%
    05:00 +16°C° 0 mm 1 mps 752 mmHg 86%
    06:00 +19°C° 0 mm 1 mps 752 mmHg 80%
    07:00 +21°C° 0 mm 1 mps 752 mmHg 74%
    08:00 +21°C° 0 mm 2 mps 753 mmHg 68%
    09:00 +24°C° 0 mm 2 mps 752 mmHg 62%
    10:00 +25°C° 0 mm 2 mps 752 mmHg 55%
    11:00 +27°C° 0 mm 2 mps 752 mmHg 49%
    12:00 +27°C° 0 mm 2 mps 752 mmHg 46%
    13:00 +28°C° 0 mm 2 mps 752 mmHg 42%
    14:00 +29°C° 0 mm 2 mps 752 mmHg 38%
    15:00 +28°C° 0 mm 2 mps 751 mmHg 40%
    16:00 +27°C° 0 mm 2 mps 751 mmHg 43%
    17:00 +26°C° 0 mm 2 mps 751 mmHg 45%
    18:00 +24°C° 0 mm 2 mps 751 mmHg 47%
    19:00 +23°C° 0 mm 2 mps 751 mmHg 50%
    20:00 +21°C° 0 mm 2 mps 752 mmHg 52%
    21:00 +20°C° 0 mm 3 mps 752 mmHg 52%
    22:00 +19°C° 0 mm 3 mps 752 mmHg 53%
    23:00 +19°C° 0 mm 3 mps 752 mmHg 53%

    22 September, Saturday

    Time Temperature Precipitation Wind Pressure Humidity
    00:00 +18°C° 0 mm 3 mps 752 mmHg 54%
    01:00 +18°C° 0 mm 3 mps 751 mmHg 54%
    02:00 +17°C° 0 mm 3 mps 751 mmHg 55%
    03:00 +17°C° 0 mm 2 mps 751 mmHg 57%
    04:00 +16°C° 0 mm 2 mps 751 mmHg 59%
    05:00 +16°C° 0 mm 2 mps 751 mmHg 60%
    06:00 +18°C° 0 mm 3 mps 751 mmHg 57%
    07:00 +19°C° 0 mm 3 mps 751 mmHg 54%
    08:00 +21°C° 0 mm 3 mps 751 mmHg 50%
    09:00 +22°C° 0 mm 3 mps 751 mmHg 45%
    10:00 +25°C° 0 mm 3 mps 751 mmHg 40%
    11:00 +27°C° 0 mm 3 mps 751 mmHg 36%
    12:00 +27°C° 0 mm 3 mps 750 mmHg 34%
    13:00 +28°C° 0 mm 3 mps 750 mmHg 32%
    14:00 +28°C° 0 mm 3 mps 749 mmHg 30%
    15:00 +27°C° 0 mm 3 mps 749 mmHg 33%
    16:00 +26°C° 0 mm 3 mps 749 mmHg 35%
    17:00 +25°C° 0 mm 2 mps 749 mmHg 38%
    18:00 +24°C° 0 mm 3 mps 749 mmHg 40%
    19:00 +21°C° 0 mm 3 mps 749 mmHg 42%
    20:00 +20°C° 0 mm 3 mps 749 mmHg 45%
    21:00 +20°C° 0 mm 3 mps 749 mmHg 46%
    22:00 +19°C° 0 mm 3 mps 748 mmHg 48%
    23:00 +18°C° 0 mm 3 mps 748 mmHg 49%

    23 September, Sunday

    Time Temperature Precipitation Wind Pressure Humidity
    00:00 +18°C° 0 mm 3 mps 748 mmHg 51%
    01:00 +18°C° 0 mm 3 mps 748 mmHg 53%
    02:00 +17°C° 0 mm 3 mps 748 mmHg 55%
    03:00 +17°C° 0 mm 3 mps 748 mmHg 58%
    04:00 +16°C° 0 mm 3 mps 747 mmHg 60%
    05:00 +16°C° 0 mm 3 mps 747 mmHg 63%
    06:00 +18°C° 0 mm 3 mps 747 mmHg 59%
    07:00 +19°C° 0 mm 4 mps 747 mmHg 55%
    08:00 +21°C° 0 mm 4 mps 747 mmHg 51%
    09:00 +23°C° 0 mm 5 mps 746 mmHg 46%
    10:00 +26°C° 0 mm 5 mps 746 mmHg 41%
    11:00 +27°C° 0 mm 6 mps 745 mmHg 36%
    12:00 +28°C° 0 mm 6 mps 745 mmHg 35%
    13:00 +28°C° 0 mm 5 mps 744 mmHg 34%
    14:00 +28°C° 0 mm 5 mps 744 mmHg 33%
    15:00 +28°C° 0 mm 5 mps 743 mmHg 35%
    16:00 +27°C° 0 mm 4 mps 743 mmHg 37%
    17:00 +26°C° 0 mm 4 mps 743 mmHg 39%
    18:00 +25°C° 0 mm 4 mps 743 mmHg 41%
    19:00 +23°C° 0 mm 5 mps 743 mmHg 43%
    20:00 +22°C° 0 mm 5 mps 743 mmHg 44%
    21:00 +21°C° 0 mm 5 mps 743 mmHg 47%
    22:00 +21°C° 0 mm 5 mps 743 mmHg 49%
    23:00 +20°C° 0 mm 4 mps 743 mmHg 52%
    Show more